Weather History for KLEX - March, 2014

Change the Weather History Date:

Wednesday, March 12, 2014

  Actual Average Record
Temperature  
Mean Temperature 46 °F 44 °F  
Max Temperature 63 °F 54 °F 77 °F (1911)
Min Temperature 29 °F 35 °F 9 °F (1998)
Degree Days  
Heating Degree Days 19 21  
Month to date heating degree days 306 270  
Since 1 July heating degree days 4149 3841  
Cooling Degree Days 0 0  
Month to date cooling degree days 0 0  
Year to date cooling degree days 0 0  
Moisture  
Dew Point 39 °F    
Average Humidity 69    
Maximum Humidity 90    
Minimum Humidity 48    
Precipitation  
Precipitation 0.11 in 0.13 in 2.04 in (1975)
Month to date precipitation 1.55 1.50  
Year to date precipitation 8.59 7.90  
Snow  
Snow T in 0.10 in 1.00 in (2005)
Month to date snowfall 5.0 0.7  
Since 1 July snowfall 24.3 12.0  
Snow Depth 0.00 in    
Sea Level Pressure  
Sea Level Pressure 29.61 in    
Wind  
Wind Speed 17 mph (WNW)    
Max Wind Speed 33 mph    
Max Gust Speed 45 mph    
Visibility 8 miles    
Events Rain , Snow    
T = Trace of Precipitation, MM = Missing Value Source: NWS Daily Summary

Daily Weather History Graph

Daily Weather History Graph

Search for Another Location

Airport or City:

Trip Planner

Search our weather history database for the weather conditions in past years. The results will help you decide how hot, cold, wet, or windy it might be!

Date:

Astronomy

Mar. 12, 2014 Rise Set
Actual Time 7:54 AM EDT 7:42 PM EDT
Civil Twilight 7:27 AM EDT 8:09 PM EDT
Nautical Twilight 6:57 AM EDT 8:39 PM EDT
Astronomical Twilight 6:26 AM EDT 9:10 PM EDT
Moon 4:15 PM EDT (3/12) 5:22 AM EDT (3/12)
Length of Visible Light 12h 41m
Length of Day
11h 48m
Waxing Gibbous, 85% of the Moon is Illuminated
Mar 12
Waxing Gibbous
Mar 16
Full
Mar 23
Last Quarter
Mar 30
New
Apr 7
First Quarter

Hourly Weather History & Observations

Time (EDT) Temp. Windchill Dew Point Humidity Pressure Visibility Wind Dir Wind Speed Gust Speed Precip Events Conditions
12:54 AM 62.1 °F - 42.1 °F 48% 29.55 in 10.0 mi South 8.1 mph - N/A   Overcast
1:54 AM 62.1 °F - 45.0 °F 53% 29.50 in 10.0 mi South 10.4 mph - N/A   Overcast
2:54 AM 61.0 °F - 46.9 °F 60% 29.47 in 10.0 mi South 10.4 mph - N/A   Overcast
3:54 AM 63.0 °F - 50.0 °F 63% 29.43 in 10.0 mi South 11.5 mph - N/A   Overcast
4:54 AM 63.0 °F - 52.0 °F 67% 29.39 in 10.0 mi SSW 15.0 mph - 0.00 in Rain Light Rain
5:54 AM 62.1 °F - 54.0 °F 75% 29.36 in 10.0 mi SSW 15.0 mph - 0.00 in   Overcast
6:07 AM 62.1 °F - 54.0 °F 75% 29.38 in 10.0 mi SSW 17.3 mph - N/A   Overcast
6:54 AM 60.1 °F - 55.9 °F 86% 29.36 in 5.0 mi SW 19.6 mph 25.3 mph 0.05 in Rain Rain
7:26 AM 60.1 °F - 57.0 °F 90% 29.35 in 9.0 mi SSW 16.1 mph 26.5 mph 0.00 in   Overcast
7:54 AM 60.1 °F - 57.0 °F 90% 29.32 in 10.0 mi SSW 15.0 mph - 0.00 in   Overcast
8:54 AM 60.1 °F - 57.0 °F 90% 29.30 in 10.0 mi SSW 18.4 mph 24.2 mph N/A   Overcast
9:51 AM 60.8 °F - 57.2 °F 88% 29.32 in 5.0 mi West 24.2 mph 32.2 mph 0.05 in Rain Light Rain
9:54 AM 60.1 °F - 55.9 °F 86% 29.31 in 6.0 mi West 23.0 mph 32.2 mph 0.05 in Rain Light Rain
10:05 AM 59.0 °F - 54.0 °F 83% 29.33 in 10.0 mi West 28.8 mph 38.0 mph 0.00 in   Overcast
10:49 AM 51.8 °F - 46.4 °F 82% 29.39 in 10.0 mi West 29.9 mph 40.3 mph 0.00 in   Overcast
10:54 AM 48.9 °F - 46.0 °F 90% 29.40 in 8.0 mi WNW 29.9 mph 43.7 mph 0.00 in   Overcast
11:06 AM 45.0 °F 35.8 °F 42.1 °F 90% 29.43 in 4.0 mi NW 26.5 mph 35.7 mph 0.00 in   Overcast
11:54 AM 39.0 °F 29.0 °F 35.1 °F 86% 29.51 in 10.0 mi WNW 20.7 mph 36.8 mph 0.00 in   Overcast
12:03 PM 39.0 °F 28.3 °F 34.0 °F 82% 29.51 in 10.0 mi WNW 24.2 mph 35.7 mph N/A   Overcast
12:16 PM 39.0 °F 28.0 °F 34.0 °F 82% 29.53 in 10.0 mi NW 25.3 mph 35.7 mph 0.00 in Rain Light Rain
12:32 PM 37.9 °F 27.3 °F 32.0 °F 79% 29.54 in 10.0 mi NW 21.9 mph 43.7 mph 0.00 in   Overcast
12:54 PM 39.0 °F 29.6 °F 32.0 °F 76% 29.57 in 10.0 mi NW 18.4 mph 34.5 mph 0.00 in Rain Light Rain
1:42 PM 39.0 °F 29.0 °F 34.0 °F 82% 29.62 in 10.0 mi WNW 20.7 mph 32.2 mph 0.00 in   Overcast
1:50 PM 39.2 °F 29.6 °F 33.8 °F 81% 29.63 in 10.0 mi WNW 19.6 mph 31.1 mph 0.00 in   Overcast
1:54 PM 37.9 °F 27.1 °F 33.1 °F 83% 29.64 in 5.0 mi WNW 23.0 mph 32.2 mph 0.00 in Rain Light Rain
2:54 PM 37.9 °F 29.2 °F 30.9 °F 76% 29.68 in 10.0 mi WNW 15.0 mph 26.5 mph 0.01 in   Overcast
3:54 PM 37.9 °F 27.6 °F 30.0 °F 73% 29.73 in 10.0 mi NNW 20.7 mph 28.8 mph N/A   Overcast
4:54 PM 36.0 °F 26.7 °F 30.0 °F 79% 29.79 in 2.5 mi NW 15.0 mph 27.6 mph 0.00 in Snow Light Snow
5:18 PM 35.1 °F 25.9 °F 30.0 °F 82% 29.81 in 4.0 mi NW 13.8 mph 24.2 mph 0.00 in Snow Light Snow
5:26 PM 35.1 °F 23.8 °F 28.9 °F 78% 29.82 in 2.5 mi NW 20.7 mph 29.9 mph 0.00 in Snow Light Snow
5:54 PM 35.1 °F 24.5 °F 28.0 °F 76% 29.83 in 2.5 mi NW 18.4 mph 28.8 mph 0.00 in Snow Light Snow
6:06 PM 35.1 °F 24.5 °F 28.0 °F 76% 29.84 in 7.0 mi NNW 18.4 mph 26.5 mph 0.00 in Snow Light Snow
6:20 PM 34.0 °F 24.2 °F 28.0 °F 79% 29.84 in 6.0 mi NW 15.0 mph - 0.00 in Snow Light Snow
6:27 PM 34.0 °F 25.5 °F 28.9 °F 82% 29.85 in 7.0 mi NNW 11.5 mph - 0.00 in Snow Light Snow
6:54 PM 34.0 °F 24.2 °F 28.0 °F 79% 29.87 in 6.0 mi NW 15.0 mph 21.9 mph 0.00 in Snow Light Snow
7:54 PM 34.0 °F 24.6 °F 27.0 °F 75% 29.91 in 6.0 mi WNW 13.8 mph 23.0 mph 0.00 in Snow Light Snow
8:11 PM 34.0 °F 22.7 °F 25.0 °F 70% 29.92 in 9.0 mi NW 19.6 mph 31.1 mph 0.00 in   Overcast
8:54 PM 33.1 °F 24.9 °F 24.1 °F 70% 29.94 in 10.0 mi NW 10.4 mph - 0.00 in   Mostly Cloudy
9:54 PM 30.9 °F 23.5 °F 23.0 °F 72% 29.97 in 10.0 mi NW 8.1 mph - N/A   Scattered Clouds
10:54 PM 32.0 °F 22.1 °F 21.0 °F 64% 29.99 in 10.0 mi NW 13.8 mph - N/A   Overcast
11:54 PM 30.9 °F 20.7 °F 19.9 °F 64% 30.01 in 10.0 mi WNW 13.8 mph - N/A   Overcast